Regional Weather Roundup
Issued by NWS

Home | Current Version | Previous Version | Graphics & Text | Print | Product List | Glossary Off
Versions: 1 2 3 4 5 6 7 8 9 10 11 12 13 14 15 16 17 18 19 20 21 22 23 24 25 26 27 28 29 30 31 32 33 34 35 36 37 38 39 40 41 42 43 44 45 46 47 48 49 50

716
ASUS43 KTOP 231159
RWRKS

WEATHER ROUNDUP FOR KANSAS
NATIONAL WEATHER SERVICE GOODLAND KS
600 AM CST THU NOV 23 2017

NOTE:  "FAIR" INDICATES FEW OR NO CLOUDS BELOW 12,000 FEET WITH NO
SIGNIFICANT WEATHER AND/OR OBSTRUCTIONS TO VISIBILITY.

KSZ001>006-013>018-027>032-041>047-231300-
NORTHWEST KANSAS

CITY           SKY/WX    TMP DP  RH WIND       PRES   REMARKS
GOODLAND       CLOUDY    42  37  82 W9        30.16S
6HR MIN TEMP:  40; 6HR MAX TEMP:  46;

HAYS           CLEAR     41  35  79 NW9       30.08R
HILL CITY      CLEAR     40  36  86 W3        30.10R
6HR MIN TEMP:  38; 6HR MAX TEMP:  46;

RUSSELL        CLEAR     34  31  88 W5        30.06R
6HR MIN TEMP:  33; 6HR MAX TEMP:  39;

$$

KSZ061>065-074>080-084>089-231300-
SOUTHWEST KANSAS

CITY           SKY/WX    TMP DP  RH WIND       PRES   REMARKS
DODGE CITY     CLOUDY    44  32  62 NW6       30.11S
6HR MIN TEMP:  44; 6HR MAX TEMP:  48;

GARDEN CITY    CLOUDY    42  34  73 NW12      30.13R
6HR MIN TEMP:  39; 6HR MAX TEMP:  45;

GREAT BEND     CLEAR     38  32  79 W8        30.07S
LIBERAL        CLOUDY    43  33  68 NW9       30.15R
$$

KSZ066>073-081>083-090>101-231300-
SOUTHEAST KANSAS

CITY           SKY/WX    TMP DP  RH WIND       PRES   REMARKS
CHANUTE        CLEAR     34  22  61 S8        30.11S
6HR MIN TEMP:  32; 6HR MAX TEMP:  37;

COFFEYVILLE    CLEAR     31  26  82 S7        30.12F
6HR MIN TEMP:  31; 6HR MAX TEMP:  33;

HUTCHINSON     CLOUDY    34  24  67 NW3       30.06S
6HR MIN TEMP:  33; 6HR MAX TEMP:  38;

MEDICINE LODGE   N/A     30  23  75 CALM      30.08R
NEWTON         CLEAR     34  22  61 SW7       30.07S
PARSONS        CLEAR     33  25  72 S6        30.13S
6HR MIN TEMP:  29; 6HR MAX TEMP:  34;

WICHITA INTL   CLOUDY    32  24  72 S7        30.07F
6HR MIN TEMP:  31; 6HR MAX TEMP:  34;

WICHITA JABRA  CLOUDY    36  22  56 SW9       30.07S
6HR MIN TEMP:  36; 6HR MAX TEMP:  39;

WICHITA MCCONL CLOUDY    33  21  62 SW8       30.07S
WINFIELD       CLOUDY    34  23  64 SE3       30.10F
6HR MIN TEMP:  32; 6HR MAX TEMP:  36;

$$

KSZ007>012-019>026-033>040-048>060-102>105-231300-
NORTHEAST KANSAS

CITY           SKY/WX    TMP DP  RH WIND       PRES   REMARKS
CONCORDIA      CLEAR     36  27  69 W8        30.04R
6HR MIN TEMP:  35; 6HR MAX TEMP:  43;

EMPORIA        CLEAR     31  22  69 SW5       30.07R
6HR MIN TEMP:  29; 6HR MAX TEMP:  33;

LAWRENCE       CLEAR     30  23  75 CALM      30.07R
6HR MIN TEMP:  29; 6HR MAX TEMP:  38;

MANHATTAN      CLEAR     33  23  66 CALM      30.07R
6HR MIN TEMP:  31; 6HR MAX TEMP:  38;

OLATHE IND     CLEAR     35  22  58 SW10      30.07R WCI  27
6HR MIN TEMP:  31; 6HR MAX TEMP:  37;

OLATHE EXE     CLEAR     33  22  63 SW9       30.06S
6HR MIN TEMP:  31; 6HR MAX TEMP:  35; 6HR PCP: TRACE;

SALINA         CLEAR     35  24  64 S3        30.06S
6HR MIN TEMP:  33; 6HR MAX TEMP:  41;

TOPEKA BILLARD CLEAR     33  23  66 CALM      30.07R
6HR MIN TEMP:  31; 6HR MAX TEMP:  40;

TOPEKA FORBES  CLEAR     33  23  66 S3        30.05S
6HR MIN TEMP:  32; 6HR MAX TEMP:  37;

$$




USA.gov is the U.S. government's official web portal to all federal, state and local government web resources and services.